Airfield :
LOGIN :

Register | Disclaimer

   EN    FR    IT 

 










Legend :    VFR   Marginal VFR   IFR   Intensive IFR   Very Intensive IFR
Visi :
Ceiling :
>= 8 km
>= 3000ft
5 to 8 km
1000 to 3000 ft
1500m to 5 km
500 to 1000 ft
800 to 1500m
200 to 500 ft
< 800m
< 200 ft
Symbols :   Thunderstorms  Fog  Heavy snow  Heavy precipitations  Wind > 20 kt
SIGMETs :     Misc.  Thunderstorms  Icing  Turbulence  Mountain Waves  Volcanic Ashes







- Airport Elevation : 600 ft
- IATA code : VIE


LOWW - Vienna Schwechat

CURRENT METAR :
  • 180750Z 33004KT 280V020 CAVOK 25/15 Q1019 NOSIG

EXPIRED METARs :
  • 180720Z VRB02KT CAVOK 24/15 Q1019 NOSIG
  • 180650Z VRB02KT CAVOK 22/14 Q1019 NOSIG
  • 180620Z VRB01KT CAVOK 21/14 Q1019 NOSIG
  • 180550Z VRB02KT CAVOK 20/13 Q1018 NOSIG
  • 180520Z VRB01KT CAVOK 19/15 Q1018 NOSIG

TAF TAF LOWW
Valid from the 18 at 06:00 until the 19 at 12:00 UTC


180515Z 1806/1912 VRB02KT CAVOK TX32/1814Z TN16/1903Z
No reported NOTAMs for that airfield.



MET'MAP, your aeronautical weather chart ! - Copyright ORBIFLY December 2007 - Disclaimer

ORBIFLY MET'MAP TEAM :

Programming & Development : Alexandra Zaïnal
Concept & Development : Baudouin d'Aumeries
Co-Development & Prog : Marc-Olivier Méhu
Technical & hardware support : Manuel Goepfert

Contact : metmap@orbifly.com




SOURCES & CREDITS :

   NOAA